星链-1637 (STARLINK-1637 )

导读

STARLINK-1637是美国太空探索技术公司星链计划的卫星,于2020年8月18日发射,属于星链低轨互联网星座组网卫星,运行在近地轨道。它为全球提供低延迟宽带互联网服务,尤其覆盖偏远地区,进一步扩充星链星座的服务容量,推进全球天基互联网组网建设。

基本信息
目录编号:
46133
目录名称:
STARLINK-1637
国际标识:
2020-057S
轨道中心:
EARTH
卫星名称:
星链-1637
卫星全名:
星链-1637 (STARLINK-1637 )
卫星状态:
已陨落 最后检测时间 2025-02-24
发射日期:
2020-08-18 UTC
国别 :
美国 (US)
星等 :
--
轨道信息
数据来源 国际轨道数据
星历时间: 2025-02-24T16:42:16+0800
轨道信息已过期479天
半长轴: 6561.043km
偏心率: 0.0006243
轨道倾角: 53.016°
近地点辐角 357.647°
升交点赤经 126.838°
平近点角 52.688°
近地点: 178.811km
远地点: 187.005km
周期: 88.149分钟
每日圈数: 16.335916
详细信息
固有亮度:
5
最大亮度:
2.5
卫星平台:
Starlink V1.0
覆盖范围:
全球
运营商:
太空探索技术公司
运营商所在国:
美国
制造商(研发单位):
太空探索技术公司
制造商所在国:
美国
使用方式:
暂无
卫星简介
星链(Starlink)计划是由太空探索技术公司(SpaceX)提出的一个巨型低轨卫星互联网星座项目,计划在2019年至2024年间在太空搭建由约1.2万颗卫星组成的“星链”网络,其中1584颗将部署在地球上空550千米处的近地轨道,并从2020年开始工作。该卫星仍在工作。